Soleil Laural Canyon Historical Data
 
Daily Summary for December 18, 2018 Units:  English    Metric   Both
Daily Weekly Monthly Yearly Custom
  Current: High: Low: Average:
Temperature: 55.2 °F 55.2 °F 34 °F 41.4 °F
Dew Point: 29.5 °F 34.3 °F 29.3 °F 33 °F
Humidity: 37% 90% 37% 73%
Wind Speed: 4mph 8.5mph 0mph 1.7mph
Wind Gust: 6.9mph 10.3mph - -
WindSSE - - SSE
Pressure: 30.10 in 30.16 in 28.88 in -
Precipitation: 0 in      
Historical Graphs
 
 
Tabular Data for December 18, 2018
Time Temperature Dew Point Pressure Wind Wind Speed Wind Gust Humidity Rainfall Rate (Hourly) solar
00:04 43.7 °F 33.4 °F 28.92 in SSE 0.2 mph 1.1 mph 67% 0 in 0.00 W/m2
00:09 43.9 °F 33.6 °F 28.92 in Calm     67% 0 in 0.00 W/m2
00:14 44.2 °F 33.6 °F 28.90 in Calm     66% 0 in 0.00 W/m2
00:19 43.5 °F 33.3 °F 28.90 in South 0.4 mph 1.1 mph 67% 0 in 0.00 W/m2
00:24 43.5 °F 33.6 °F 28.91 in Calm     68% 0 in 0.00 W/m2
00:29 43.2 °F 33.3 °F 28.91 in Calm     68% 0 in 0.00 W/m2
00:34 42.3 °F 33.4 °F 28.91 in Calm     71% 0 in 0.00 W/m2
00:39 41.4 °F 32.5 °F 28.90 in Calm     71% 0 in 0.00 W/m2
00:44 42.6 °F 33.3 °F 28.90 in SSE 0.9 mph 1.1 mph 69% 0 in 0.00 W/m2
00:49 43.3 °F 33.8 °F 28.90 in SE 2.5 mph 4.5 mph 69% 0 in 0.00 W/m2
00:54 43.5 °F 34 °F 28.90 in South 3.6 mph 4.5 mph 69% 0 in 0.00 W/m2
00:59 43.2 °F 34 °F 28.90 in SSE 0.2 mph 1.1 mph 70% 0 in 0.00 W/m2
01:04 43.2 °F 33.6 °F 28.90 in SSE 1.8 mph 2.2 mph 69% 0 in 0.00 W/m2
01:09 42.8 °F 33.4 °F 28.89 in South 1.3 mph 2.2 mph 69% 0 in 0.00 W/m2
01:14 43 °F 33.8 °F 28.89 in SSE 0.7 mph 1.1 mph 70% 0 in 0.00 W/m2
01:19 42.8 °F 33.6 °F 28.89 in SSE 0.9 mph 1.1 mph 70% 0 in 0.00 W/m2
01:24 42.6 °F 33.4 °F 28.89 in ESE 0.2 mph 1.1 mph 70% 0 in 0.00 W/m2
01:29 42.4 °F 33.6 °F 28.88 in SSE 1.1 mph 2.2 mph 71% 0 in 0.00 W/m2
01:34 41.9 °F 33.4 °F 28.89 in ESE 0.9 mph 1.1 mph 72% 0 in 0.00 W/m2
01:39 41.5 °F 33.6 °F 28.90 in ESE 0.7 mph 1.1 mph 73% 0 in 0.00 W/m2
01:44 41.2 °F 33.4 °F 28.90 in ESE 2 mph 3.4 mph 74% 0 in 0.00 W/m2
01:49 40.5 °F 33.4 °F 28.90 in East 0.7 mph 1.1 mph 76% 0 in 0.00 W/m2
01:54 39.9 °F 33.3 °F 28.90 in Calm     77% 0 in 0.00 W/m2
01:59 39.4 °F 33.1 °F 28.90 in Calm     78% 0 in 0.00 W/m2
02:04 39.2 °F 32.9 °F 28.90 in Calm     78% 0 in 0.00 W/m2
02:09 39.7 °F 33.1 °F 28.90 in ESE 0.2 mph 1.1 mph 77% 0 in 0.00 W/m2
02:14 40.1 °F 33.1 °F 28.90 in Calm     76% 0 in 0.00 W/m2
02:19 40.5 °F 33.1 °F 28.90 in East 0.4 mph 1.1 mph 75% 0 in 0.00 W/m2
02:24 40.5 °F 33.4 °F 28.90 in ESE 0.7 mph 1.1 mph 76% 0 in 0.00 W/m2
02:29 40.1 °F 33.1 °F 28.91 in Calm     76% 0 in 0.00 W/m2
02:34 40.1 °F 33.1 °F 28.90 in ESE 0.7 mph 1.1 mph 76% 0 in 0.00 W/m2
02:39 40.3 °F 32.9 °F 28.90 in ESE 2 mph 3.4 mph 75% 0 in 0.00 W/m2
02:44 40.5 °F 33.1 °F 28.90 in East 0.2 mph 1.1 mph 75% 0 in 0.00 W/m2
02:49 40.6 °F 33.1 °F 28.90 in East 1.8 mph 2.2 mph 74% 0 in 0.00 W/m2
02:54 40.6 °F 33.3 °F 28.90 in East 0.7 mph 1.1 mph 75% 0 in 0.00 W/m2
02:59 40.3 °F 33.3 °F 28.90 in East 1.6 mph 2.2 mph 76% 0 in 0.00 W/m2
03:04 40.1 °F 33.1 °F 28.90 in East 0.2 mph 1.1 mph 76% 0 in 0.00 W/m2
03:09 39.9 °F 33.3 °F 28.90 in Calm     77% 0 in 0.00 W/m2
03:14 39.6 °F 32.9 °F 28.90 in East 0.2 mph 1.1 mph 77% 0 in 0.00 W/m2
03:19 39.7 °F 33.1 °F 28.90 in Calm     77% 0 in 0.00 W/m2
03:24 39 °F 33.1 °F 28.90 in Calm     79% 0 in 0.00 W/m2
03:29 38.3 °F 32.7 °F 28.90 in Calm     80% 0 in 0.00 W/m2
03:34 37.9 °F 32.5 °F 28.90 in East 0.2 mph 1.1 mph 81% 0 in 0.00 W/m2
03:39 38.3 °F 32.7 °F 28.90 in Calm     80% 0 in 0.00 W/m2
03:44 38.8 °F 32.9 °F 28.90 in Calm     79% 0 in 0.00 W/m2
03:49 39.2 °F 32.9 °F 28.90 in SSE 0.4 mph 1.1 mph 78% 0 in 0.00 W/m2
03:54 39.9 °F 33.3 °F 28.90 in East 0.2 mph 1.1 mph 77% 0 in 0.00 W/m2
03:59 40.1 °F 33.4 °F 28.90 in Calm     77% 0 in 0.00 W/m2
04:04 40.5 °F 33.4 °F 28.90 in SE 1.1 mph 2.2 mph 76% 0 in 0.00 W/m2
04:09 40.6 °F 33.6 °F 28.90 in South 2.9 mph 4.5 mph 76% 0 in 0.00 W/m2
04:14 40.6 °F 33.3 °F 28.89 in SE 4 mph 5.8 mph 75% 0 in 0.00 W/m2
04:19 40.6 °F 33.3 °F 28.90 in SSE 4.7 mph 5.8 mph 75% 0 in 0.00 W/m2
04:24 40.6 °F 33.6 °F 28.89 in South 1.3 mph 2.2 mph 76% 0 in 0.00 W/m2
04:29 40.3 °F 33.3 °F 28.89 in SSE 2.9 mph 3.4 mph 76% 0 in 0.00 W/m2
04:34 39.9 °F 33.3 °F 28.89 in SSE 1.8 mph 2.2 mph 77% 0 in 0.00 W/m2
04:39 39.7 °F 33.4 °F 28.89 in SSE 3.1 mph 6.9 mph 78% 0 in 0.00 W/m2
04:44 39.6 °F 33.3 °F 28.90 in SSE 2 mph 3.4 mph 78% 0 in 0.00 W/m2
04:49 39.4 °F 33.4 °F 28.89 in South 1.3 mph 2.2 mph 79% 0 in 0.00 W/m2
04:54 39.2 °F 33.3 °F 28.90 in Calm     79% 0 in 0.00 W/m2
04:59 38.7 °F 33.1 °F 28.90 in South 1.3 mph 3.4 mph 80% 0 in 0.00 W/m2
05:04 39 °F 33.4 °F 28.90 in South 2.9 mph 3.4 mph 80% 0 in 0.00 W/m2
05:09 38.7 °F 33.1 °F 28.90 in SSE 2.2 mph 4.5 mph 80% 0 in 0.00 W/m2
05:14 38.8 °F 33.3 °F 28.90 in SE 0.7 mph 1.1 mph 80% 0 in 0.00 W/m2
05:19 38.8 °F 32.9 °F 28.90 in NE 1.1 mph 2.2 mph 79% 0 in 0.00 W/m2
05:24 38.7 °F 33.3 °F 28.90 in Calm     81% 0 in 0.00 W/m2
05:29 38.1 °F 33.1 °F 28.91 in South 0.2 mph 1.1 mph 82% 0 in 0.00 W/m2
05:34 37.6 °F 32.9 °F 28.91 in NNW 2.5 mph 3.4 mph 83% 0 in 0.00 W/m2
05:39 37 °F 32.5 °F 28.91 in North 2 mph 2.2 mph 84% 0 in 0.00 W/m2
05:44 37.2 °F 32.7 °F 28.90 in North 3.6 mph 4.5 mph 84% 0 in 0.00 W/m2
05:49 37.8 °F 33.1 °F 28.90 in NE 0.7 mph 1.1 mph 83% 0 in 0.00 W/m2
05:54 37 °F 32.5 °F 28.90 in West 0.4 mph 1.1 mph 84% 0 in 0.00 W/m2
05:59 37 °F 32.5 °F 28.90 in SW 1.1 mph 2.2 mph 84% 0 in 0.00 W/m2
06:04 38.1 °F 32.5 °F 28.90 in South 1.8 mph 3.4 mph 80% 0 in 0.00 W/m2
06:09 39 °F 33.4 °F 28.90 in Calm     80% 0 in 0.00 W/m2
06:14 38.5 °F 33.1 °F 28.90 in SSE 1.6 mph 2.2 mph 81% 0 in 0.00 W/m2
06:19 38.5 °F 33.1 °F 28.90 in South 0.4 mph 1.1 mph 81% 0 in 0.00 W/m2
06:24 38.5 °F 32.9 °F 28.90 in South 2 mph 2.2 mph 80% 0 in 0.00 W/m2
06:29 38.8 °F 33.3 °F 28.90 in SSE 2 mph 2.2 mph 80% 0 in 0.00 W/m2
06:34 38.7 °F 33.1 °F 28.90 in SSE 2.2 mph 3.4 mph 80% 0 in 0.00 W/m2
06:39 38.5 °F 32.9 °F 28.91 in SSE 2.9 mph 4.5 mph 80% 0 in 0.00 W/m2
06:43 38.3 °F 33.3 °F 28.91 in SE 0.2 mph 1.1 mph 82% 0 in 0.00 W/m2
06:49 37.8 °F 32.7 °F 28.92 in East 1.8 mph 2.2 mph 82% 0 in 0.00 W/m2
06:54 37.4 °F 32.7 °F 28.91 in ESE 0.7 mph 2.2 mph 83% 0 in 0.00 W/m2
06:59 37.2 °F 32.5 °F 28.91 in ESE 0.4 mph 2.2 mph 83% 0 in 0.00 W/m2
07:04 36.9 °F 32.4 °F 28.91 in Calm     84% 0 in 0.00 W/m2
07:09 36.1 °F 32.4 °F 28.91 in Calm     86% 0 in 0.00 W/m2
07:14 36.1 °F 32 °F 28.91 in Calm     85% 0 in 0.00 W/m2
07:19 36.3 °F 32.2 °F 28.91 in East 0.9 mph 1.1 mph 85% 0 in 0.00 W/m2
07:24 36.1 °F 32.4 °F 28.91 in East 0.9 mph 1.1 mph 86% 0 in 0.00 W/m2
07:29 36 °F 32.2 °F 28.91 in Calm     86% 0 in 0.00 W/m2
07:34 35.2 °F 32.2 °F 28.91 in Calm     89% 0 in 0.36 W/m2
07:39 35.4 °F 31.8 °F 28.91 in ENE 1.1 mph 1.1 mph 87% 0 in 2.57 W/m2
07:44 35.1 °F 31.6 °F 28.91 in Calm     88% 0 in 5.14 W/m2
07:49 34.7 °F 31.6 °F 28.91 in Calm     89% 0 in 7.70 W/m2
07:54 34.2 °F 31.5 °F 28.92 in Calm     90% 0 in 11.25 W/m2
07:59 34 °F 31.3 °F 28.91 in ENE 0.9 mph 1.1 mph 90% 0 in 16.02 W/m2
08:04 37.4 °F 32.7 °F 28.92 in Calm     83% 0 in 19.94 W/m2
08:09 37 °F 32.5 °F 28.92 in Calm     84% 0 in 26.42 W/m2
08:14 37.6 °F 32.9 °F 28.92 in SSE 0.4 mph 1.1 mph 83% 0 in 29.48 W/m2
08:19 38.3 °F 32.9 °F 28.93 in SSE 0.7 mph 1.1 mph 81% 0 in 33.39 W/m2
08:24 38.3 °F 32.9 °F 28.92 in SSE 0.4 mph 1.1 mph 81% 0 in 37.68 W/m2
08:29 38.7 °F 33.3 °F 28.92 in South 2.9 mph 3.4 mph 81% 0 in 42.45 W/m2
08:34 39.2 °F 33.6 °F 28.92 in SSE 2.2 mph 4.5 mph 80% 0 in 46.36 W/m2
08:39 39.7 °F 33.8 °F 28.92 in South 2.2 mph 3.4 mph 79% 0 in 50.65 W/m2
08:44 40.1 °F 33.8 °F 30.14 in SSE 3.8 mph 4.5 mph 78% 0 in 55.90 W/m2
08:49 40.3 °F 34 °F 30.14 in South 2.7 mph 3.4 mph 78% 0 in 84.53 W/m2
08:54 40.6 °F 33.6 °F 30.15 in SSE 3.4 mph 4.5 mph 76% 0 in 94.07 W/m2
08:59 40.8 °F 33.8 °F 30.15 in SSE 1.1 mph 2.2 mph 76% 0 in 108.88 W/m2
09:04 41.2 °F 33.4 °F 30.14 in SSE 8.5 mph 10.3 mph 74% 0 in 115.36 W/m2
09:09 41.4 °F 33.6 °F 30.15 in SE 2.7 mph 3.4 mph 74% 0 in 132.24 W/m2
09:14 41.7 °F 34 °F 30.15 in South 3.6 mph 4.5 mph 74% 0 in 132.73 W/m2
09:19 41.9 °F 34 °F 30.15 in South 6.9 mph 9.2 mph 73% 0 in 156.95 W/m2
09:24 42.1 °F 34.2 °F 30.15 in South 3.1 mph 4.5 mph 73% 0 in 164.78 W/m2
09:29 42.4 °F 34 °F 30.15 in SSE 1.3 mph 2.2 mph 72% 0 in 175.67 W/m2
09:34 43 °F 34.2 °F 30.15 in SSE 3.4 mph 5.8 mph 71% 0 in 201.24 W/m2
09:39 43.2 °F 34.3 °F 30.15 in South 2.5 mph 3.4 mph 71% 0 in 199.90 W/m2
09:44 43.2 °F 33.6 °F 30.15 in South 7.4 mph 10.3 mph 69% 0 in 245.52 W/m2
09:49 43.5 °F 34 °F 30.15 in South 4 mph 6.9 mph 69% 0 in 224.61 W/m2
09:54 44.1 °F 34.2 °F 30.15 in SE 2.9 mph 4.5 mph 68% 0 in 232.93 W/m2
09:59 44.4 °F 34.2 °F 30.16 in SSE 4.5 mph 5.8 mph 67% 0 in 258.98 W/m2
10:04 45.1 °F 34.2 °F 30.16 in South 5.8 mph 6.9 mph 65% 0 in 315.75 W/m2
10:09 45.5 °F 34 °F 30.15 in South 4.9 mph 6.9 mph 64% 0 in 286.27 W/m2
10:14 46 °F 33.8 °F 30.16 in South 4 mph 5.8 mph 62% 0 in 287.98 W/m2
10:19 46.2 °F 34 °F 30.15 in ESE 1.6 mph 3.4 mph 62% 0 in 296.66 W/m2
10:24 46.6 °F 33.4 °F 30.15 in SE 4.7 mph 6.9 mph 60% 0 in 338.26 W/m2
10:29 47.1 °F 33.6 °F 30.15 in SSW 4.3 mph 5.8 mph 59% 0 in 390.37 W/m2
10:34 47.7 °F 34 °F 30.15 in SE 2.9 mph 3.4 mph 59% 0 in 373.00 W/m2
10:39 48 °F 33.4 °F 30.15 in SE 0.7 mph 1.1 mph 57% 0 in 347.43 W/m2
10:44 48.6 °F 33.6 °F 30.14 in South 2.5 mph 3.4 mph 56% 0 in 346.95 W/m2
10:49 49.3 °F 33.3 °F 30.14 in SSE 0.9 mph 1.1 mph 54% 0 in 356.98 W/m2
10:54 50 °F 31.6 °F 30.14 in SSE 4.5 mph 5.8 mph 49% 0 in 386.95 W/m2
10:59 50.7 °F 32.4 °F 30.14 in WSW 1.1 mph 1.1 mph 49% 0 in 439.43 W/m2
11:04 51.4 °F 30.2 °F 30.13 in SSE 4.3 mph 6.9 mph 44% 0 in 430.25 W/m2
11:09 51.3 °F 30.7 °F 30.13 in South 4.9 mph 5.8 mph 45% 0 in 385.60 W/m2
11:14 52.2 °F 30.4 °F 30.12 in South 6 mph 6.9 mph 43% 0 in 427.20 W/m2
11:19 52.7 °F 30.9 °F 30.12 in SE 3.1 mph 4.5 mph 43% 0 in 454.96 W/m2
11:24 53.1 °F 30.6 °F 30.11 in SSE 2.9 mph 4.5 mph 42% 0 in 434.66 W/m2
11:29 53.2 °F 30.2 °F 30.12 in SSE 2 mph 2.2 mph 41% 0 in 439.43 W/m2
11:34 53.6 °F 29.3 °F 30.11 in SE 4.5 mph 5.8 mph 39% 0 in 483.59 W/m2
11:39 54.3 °F 29.8 °F 30.10 in SSW 4.3 mph 6.9 mph 39% 0 in 71.07 W/m2
11:44 55 °F 29.3 °F 30.09 in SSW 7.2 mph 9.2 mph 37% 0 in 481.88 W/m2
11:49 55.2 °F 29.5 °F 30.10 in SSE 4 mph 6.9 mph 37% 0 in 464.14 W/m2
Soleil - Laurel Canyon
Compliments of Weather Underground - 2.25 mb